Temp
8 7 7 7 7 7 6 6 5 4 4 4 4 3 3 3 2 2 2 1 1 1
7 7 7 6 6 5 5 5 4 4 3 3 3 2 2 2 1 2 1 1 1 0
6 6 6 6 6 5 4 4 4 3 3 3 2 2 2 1 1 1 1 1 0 0
6 6 6 5 5 5 4 3 3 3 2 2 1 2 1 1 1 0 0 0 -0 -1
6 5 5 4 4 3 3 2 2 2 1 1 1 1 1 0 1 -0 -0 -0 -1 -1
5 5 4 4 3 2 2 1 1 1 0 0 1 1 -0 -1 -1 -1 -1 -1 -2 -1
5 4 3 3 2 1 1 1 0 -1 -1 -0 -0 -0 -1 -1 -1 -1 -2 -2 -2 -2
4 3 3 2 1 0 -1 0 -1 -2 -1 -1 -1 -1 -1 -2 -2 -2 -2 -2 -2 -2
3 2 2 2 1 -0 -2 1 -1 -2 -2 -2 -2 -2 -2 -3 -3 -3 -4 -3 -3 -3
2 2 1 0 1 -1 -2 -1 -1 -3 -3 -2 -2 -2 -3 -4 -4 -4 -4 -4 -3 -4
1 -0 -0 -1 -1 -2 -2 -0 -1 -2 -3 -3 -3 -3 -4 -5 -5 -5 -5 -4 -4 -5
1 -1 -1 -1 -1 -2 -2 -1 -3 -3 -3 -4 -4 -4 -5 -5 -6 -6 -5 -5 -5 -6
-0 -2 -2 -0 -1 -2 -3 -2 -4 -4 -4 -5 -5 -5 -6 -6 -6 -6 -6 -6 -6 -6
-2 -3 -2 -2 -2 -3 -4 -4 -5 -5 -5 -6 -5 -6 -8 -8 -7 -6 -6 -7 -7 -7
Height
1454 1461 1465 1468 1472 1477 1479 1479 1482 1484 1485 1487 1486 1488 1487 1489 1490 1489 1489 1489 1489 1487
1451 1452 1457 1464 1469 1476 1476 1478 1479 1482 1483 1483 1484 1486 1487 1489 1489 1489 1488 1485 1489 1487
1446 1450 1457 1460 1463 1468 1472 1475 1477 1479 1480 1480 1481 1483 1485 1486 1487 1488 1488 1486 1488 1487
1441 1446 1449 1455 1459 1462 1467 1472 1473 1475 1477 1477 1479 1481 1483 1484 1486 1488 1486 1486 1486 1487
1435 1441 1443 1449 1452 1461 1465 1469 1473 1471 1475 1475 1476 1480 1481 1482 1483 1487 1485 1485 1486 1486
1430 1435 1440 1445 1448 1457 1462 1465 1468 1470 1474 1474 1475 1476 1479 1482 1484 1485 1484 1485 1486 1485
1424 1430 1436 1441 1447 1454 1458 1460 1465 1469 1471 1472 1473 1475 1478 1480 1483 1484 1484 1484 1485 1485
1419 1424 1430 1434 1444 1451 1454 1457 1463 1467 1469 1471 1471 1473 1477 1480 1482 1483 1484 1483 1483 1485
1413 1420 1424 1428 1438 1445 1449 1454 1459 1463 1467 1467 1469 1473 1476 1481 1481 1481 1484 1482 1483 1483
1407 1410 1416 1425 1431 1438 1442 1449 1456 1460 1463 1465 1467 1471 1475 1480 1480 1481 1483 1482 1483 1483
1401 1406 1413 1418 1425 1434 1433 1443 1449 1453 1458 1461 1465 1468 1473 1480 1479 1481 1481 1481 1482 1483
1389 1398 1408 1413 1422 1425 1429 1438 1445 1450 1454 1458 1461 1465 1471 1477 1477 1480 1480 1480 1480 1482
1381 1394 1405 1410 1414 1420 1428 1435 1442 1446 1451 1456 1459 1463 1470 1473 1475 1477 1478 1480 1480 1481
1379 1392 1399 1403 1410 1416 1427 1435 1440 1444 1449 1453 1457 1462 1468 1470 1472 1475 1477 1478 1479 1480
Wind_Speed
35 33 29 28 27 22 18 15 14 12 10 9 6 3 2 3 3 1 1 2 2 2
38 37 33 29 26 22 20 17 15 13 12 9 7 6 4 4 3 2 1 1 1 2
41 38 33 32 30 27 23 20 15 14 13 10 9 7 6 6 4 3 2 2 1 1
42 39 36 36 32 29 26 21 17 16 14 12 11 9 8 7 5 5 4 4 3 2
42 41 40 38 32 31 26 21 19 16 16 14 11 11 9 8 7 7 6 5 5 4
44 43 40 37 33 30 25 22 20 17 17 14 13 12 11 10 9 9 8 7 6 4
43 42 39 35 32 30 25 21 19 18 17 16 14 13 12 11 11 10 9 8 6 5
44 42 40 36 33 30 24 20 19 18 17 16 14 13 13 13 12 10 10 9 7 5
44 42 41 38 36 30 23 21 20 19 17 17 15 15 15 13 12 11 10 8 7 4
47 44 43 41 37 32 27 23 22 20 19 18 17 16 15 15 13 12 11 8 6 5
48 45 46 44 36 33 28 27 25 23 21 19 19 19 17 17 15 15 11 8 6 4
50 50 49 42 35 32 29 28 27 24 22 22 21 20 20 20 17 14 11 9 6 4
51 51 45 36 37 32 28 27 28 26 24 22 21 20 23 20 17 15 11 9 7 5
50 45 39 39 34 29 29 28 29 26 25 23 20 21 23 21 17 14 11 9 7 5
Wind_Direction
203 206 207 209 210 207 206 200 202 202 205 211 212 217 226 252 236 231 347 1 3 14
208 207 208 211 211 212 206 207 204 206 205 207 207 215 226 235 232 246 221 102 322 11
209 207 212 211 209 210 212 211 210 208 209 204 203 211 223 226 228 217 205 150 133 47
208 208 210 211 210 211 212 211 211 208 211 203 203 214 218 217 214 208 189 167 138 123
207 207 206 208 208 210 209 211 212 209 211 202 204 213 211 207 201 202 185 164 147 129
207 206 207 206 203 206 208 210 210 208 211 205 205 206 202 202 201 192 177 166 155 137
209 208 204 202 203 204 206 207 212 210 207 204 201 196 199 201 198 188 180 165 154 136
209 206 203 201 202 200 201 208 210 210 202 201 197 196 200 198 193 186 179 164 153 142
209 205 203 200 198 203 193 204 207 205 203 198 196 195 198 201 191 179 178 168 153 142
206 203 200 199 198 199 189 200 204 203 202 200 197 202 201 193 186 180 178 171 161 136
204 204 200 197 196 195 187 200 204 202 203 199 198 201 194 191 183 182 181 175 166 152
205 203 199 194 197 194 185 196 203 201 199 197 197 198 195 195 188 187 186 180 173 172
207 202 196 195 196 192 191 200 201 195 196 194 196 199 201 201 199 200 196 189 190 195
203 194 197 201 191 188 194 201 197 194 189 188 191 201 207 209 205 205 208 203 210 226